Location: Newark
(34.1333°N, 7.9667°W)
Time: 07:24:27
(UTC+00:00)

S-56A Canister/Altair - Pass Details

Date: 08 December 2021
Orbit: 634 x 2499 km, 38.9° (Epoch: 25 January)

Event Time Altitude Azimuth Distance (km) Brightness Sun altitude
Exits shadow 05:22:29 31° 202° (SSW) 1,240 8.4 -24.7°
Drops below altitude 10° 05:25:56 10° 154° (SSE) 2,053 10.2 -24.0°
Sets 05:28:16 0° 143° (SE) 2,913 11.2 -23.6°
